Time,TemperatureF,DewpointF,PressureIn,WindDirection,WindDirectionDegrees,WindSpeedMPH,WindSpeedGustMPH,Humidity,HourlyPrecipIn,Conditions,Clouds,dailyrainin,SoftwareType,DateUTC
2013-02-25 00:04:00,45.0,36.6,29.71,South,180,5.4,7.2,72,0.00,,,0.00,WUHU216HW,2013-02-25 08:04:00,
2013-02-25 00:09:00,44.6,36.8,29.71,East,90,2.0,8.1,74,0.00,,,0.00,WUHU216HW,2013-02-25 08:09:00,
2013-02-25 00:14:00,44.5,37.0,29.71,SSW,203,2.0,8.1,75,0.00,,,0.00,WUHU216HW,2013-02-25 08:14:00,
2013-02-25 00:19:00,43.9,37.2,29.71,SE,135,0.2,6.5,77,0.00,,,0.00,WUHU216HW,2013-02-25 08:19:00,
2013-02-25 00:24:00,43.6,37.4,29.71,NW,315,3.8,4.7,79,0.00,,,0.00,WUHU216HW,2013-02-25 08:24:00,
2013-02-25 00:29:00,43.6,37.8,29.70,SE,135,6.7,6.7,80,0.02,,,0.02,WUHU216HW,2013-02-25 08:29:00,
2013-02-25 00:34:00,43.2,37.4,29.70,SSW,203,0.9,6.7,80,0.02,,,0.02,WUHU216HW,2013-02-25 08:34:00,
2013-02-25 00:39:00,43.0,37.5,29.70,SW,225,0.9,3.1,81,0.02,,,0.02,WUHU216HW,2013-02-25 08:39:00,
2013-02-25 00:44:00,43.0,37.9,29.69,NNW,338,0.2,3.6,82,0.02,,,0.02,WUHU216HW,2013-02-25 08:44:00,
2013-02-25 00:49:00,42.8,38.0,29.69,West,270,1.6,4.3,83,0.02,,,0.02,WUHU216HW,2013-02-25 08:49:00,
2013-02-25 00:54:00,42.8,38.0,29.69,South,180,0.0,5.4,83,0.02,,,0.02,WUHU216HW,2013-02-25 08:54:00,
2013-02-25 00:59:00,42.8,38.0,29.69,WSW,248,1.6,5.4,83,0.02,,,0.02,WUHU216HW,2013-02-25 08:59:00,
2013-02-25 01:04:00,42.7,38.2,29.69,SSW,203,0.9,2.7,84,0.02,,,0.02,WUHU216HW,2013-02-25 09:04:00,
2013-02-25 01:09:00,42.5,38.0,29.68,SSW,203,1.8,2.7,84,0.02,,,0.02,WUHU216HW,2013-02-25 09:09:00,
2013-02-25 01:14:00,42.5,38.3,29.68,South,180,0.4,2.7,85,0.02,,,0.02,WUHU216HW,2013-02-25 09:14:00,
2013-02-25 01:19:00,42.5,38.0,29.68,ESE,113,0.0,2.0,84,0.02,,,0.02,WUHU216HW,2013-02-25 09:19:00,
2013-02-25 01:24:00,42.5,38.3,29.67,SSE,158,0.2,2.0,85,0.02,,,0.04,WUHU216HW,2013-02-25 09:24:00,
2013-02-25 01:29:00,42.3,38.1,29.68,SW,225,0.0,2.0,85,0.02,,,0.04,WUHU216HW,2013-02-25 09:29:00,
2013-02-25 01:34:00,42.5,38.3,29.67,ESE,113,0.2,1.6,85,0.02,,,0.04,WUHU216HW,2013-02-25 09:34:00,
2013-02-25 01:39:00,42.3,38.1,29.67,SSW,203,0.0,1.6,85,0.02,,,0.04,WUHU216HW,2013-02-25 09:39:00,
2013-02-25 01:44:00,42.3,38.1,29.67,SE,135,0.0,1.1,85,0.02,,,0.04,WUHU216HW,2013-02-25 09:44:00,
2013-02-25 01:50:00,42.1,38.2,29.67,SE,135,0.0,0.7,86,0.02,,,0.04,WUHU216HW,2013-02-25 09:50:00,
2013-02-25 01:55:00,42.1,37.9,29.67,SE,135,0.0,0.2,85,0.02,,,0.04,WUHU216HW,2013-02-25 09:55:00,
2013-02-25 02:00:00,42.1,38.5,29.67,SE,135,0.0,0.2,87,0.02,,,0.04,WUHU216HW,2013-02-25 10:00:00,
2013-02-25 02:05:00,41.8,38.2,29.66,North,0,0.0,0.2,87,0.02,,,0.04,WUHU216HW,2013-02-25 10:05:00,
2013-02-25 02:10:00,41.8,38.2,29.67,North,0,0.0,0.2,87,0.04,,,0.07,WUHU216HW,2013-02-25 10:10:00,
2013-02-25 02:15:00,41.8,38.4,29.66,North,0,0.0,0.2,88,0.04,,,0.07,WUHU216HW,2013-02-25 10:15:00,
2013-02-25 02:20:00,41.8,38.2,29.66,North,0,0.0,0.4,87,0.02,,,0.07,WUHU216HW,2013-02-25 10:20:00,
2013-02-25 02:25:00,41.8,38.2,29.66,North,0,0.0,0.4,87,0.02,,,0.07,WUHU216HW,2013-02-25 10:25:00,
2013-02-25 02:30:00,41.8,38.8,29.66,South,180,0.0,0.4,89,0.02,,,0.07,WUHU216HW,2013-02-25 10:30:00,
2013-02-25 02:35:00,41.8,39.1,29.66,ENE,68,1.1,2.2,90,0.02,,,0.07,WUHU216HW,2013-02-25 10:35:00,
2013-02-25 02:40:00,41.9,39.0,29.66,SSE,158,0.4,2.5,89,0.02,,,0.07,WUHU216HW,2013-02-25 10:40:00,
2013-02-25 02:45:00,41.9,39.0,29.66,SE,135,0.9,2.5,89,0.02,,,0.07,WUHU216HW,2013-02-25 10:45:00,
2013-02-25 02:50:00,41.9,39.0,29.66,SE,135,0.0,1.6,89,0.02,,,0.07,WUHU216HW,2013-02-25 10:50:00,
2013-02-25 02:56:00,41.9,39.0,29.65,SE,135,1.1,2.0,89,0.02,,,0.07,WUHU216HW,2013-02-25 10:56:00,
2013-02-25 03:01:00,41.9,39.0,29.65,SSW,203,0.9,5.1,89,0.02,,,0.07,WUHU216HW,2013-02-25 11:01:00,
2013-02-25 03:06:00,41.8,38.8,29.65,ESE,113,0.4,5.1,89,0.00,,,0.07,WUHU216HW,2013-02-25 11:06:00,
2013-02-25 03:11:00,41.9,38.6,29.65,ESE,113,1.1,4.7,88,0.00,,,0.07,WUHU216HW,2013-02-25 11:11:00,
2013-02-25 03:16:00,41.9,39.0,29.65,ESE,113,2.0,3.6,89,0.00,,,0.07,WUHU216HW,2013-02-25 11:16:00,
2013-02-25 03:21:00,41.9,39.0,29.65,SSW,203,3.6,8.3,89,0.00,,,0.07,WUHU216HW,2013-02-25 11:21:00,
2013-02-25 03:26:00,41.9,39.0,29.65,West,270,2.2,8.3,89,0.00,,,0.07,WUHU216HW,2013-02-25 11:26:00,
2013-02-25 03:31:00,41.9,39.0,29.65,SSW,203,2.9,7.6,89,0.00,,,0.07,WUHU216HW,2013-02-25 11:31:00,
2013-02-25 03:36:00,41.9,39.0,29.66,West,270,1.6,7.6,89,0.00,,,0.07,WUHU216HW,2013-02-25 11:36:00,
2013-02-25 03:41:00,41.9,38.6,29.66,ESE,113,1.1,9.8,88,0.00,,,0.07,WUHU216HW,2013-02-25 11:41:00,
2013-02-25 03:46:00,42.1,38.8,29.66,ENE,68,1.1,9.8,88,0.00,,,0.07,WUHU216HW,2013-02-25 11:46:00,
2013-02-25 03:51:00,42.1,38.8,29.66,WNW,293,1.6,6.0,88,0.00,,,0.07,WUHU216HW,2013-02-25 11:51:00,
2013-02-25 03:56:00,42.1,38.8,29.66,SW,225,4.0,6.3,88,0.00,,,0.07,WUHU216HW,2013-02-25 11:56:00,
2013-02-25 04:01:00,42.1,38.8,29.66,SW,225,6.3,6.3,88,0.00,,,0.07,WUHU216HW,2013-02-25 12:01:00,
2013-02-25 04:06:00,42.1,38.8,29.67,WNW,293,5.4,6.3,88,0.00,,,0.07,WUHU216HW,2013-02-25 12:06:00,
2013-02-25 04:11:00,42.1,38.5,29.67,WSW,248,5.8,9.2,87,0.00,,,0.07,WUHU216HW,2013-02-25 12:11:00,
2013-02-25 04:17:00,42.1,38.5,29.67,ESE,113,3.6,9.2,87,0.00,,,0.07,WUHU216HW,2013-02-25 12:17:00,
2013-02-25 04:22:00,42.1,38.5,29.67,WSW,248,8.5,8.5,87,0.00,,,0.07,WUHU216HW,2013-02-25 12:22:00,
2013-02-25 04:27:00,42.1,38.5,29.67,SSW,203,4.9,8.5,87,0.00,,,0.07,WUHU216HW,2013-02-25 12:27:00,
2013-02-25 04:32:00,42.1,38.5,29.67,WSW,248,1.6,7.6,87,0.00,,,0.07,WUHU216HW,2013-02-25 12:32:00,
2013-02-25 04:37:00,42.1,38.5,29.67,ENE,68,1.3,9.8,87,0.00,,,0.07,WUHU216HW,2013-02-25 12:37:00,
2013-02-25 04:42:00,42.1,38.5,29.67,SSW,203,2.2,9.8,87,0.00,,,0.07,WUHU216HW,2013-02-25 12:42:00,
2013-02-25 04:47:00,42.1,38.5,29.67,SW,225,1.8,6.5,87,0.00,,,0.07,WUHU216HW,2013-02-25 12:47:00,
2013-02-25 04:52:00,42.1,38.5,29.67,West,270,2.9,6.3,87,0.00,,,0.07,WUHU216HW,2013-02-25 12:52:00,
2013-02-25 04:57:00,42.1,38.5,29.68,SW,225,2.9,7.4,87,0.00,,,0.07,WUHU216HW,2013-02-25 12:57:00,
2013-02-25 05:02:00,42.1,38.2,29.68,SSW,203,4.7,7.4,86,0.00,,,0.07,WUHU216HW,2013-02-25 13:02:00,
2013-02-25 05:07:00,42.1,38.5,29.68,SSW,203,4.0,6.5,87,0.00,,,0.07,WUHU216HW,2013-02-25 13:07:00,
2013-02-25 05:13:00,42.1,38.5,29.69,SW,225,6.3,7.2,87,0.00,,,0.07,WUHU216HW,2013-02-25 13:13:00,
2013-02-25 05:18:00,42.1,38.2,29.69,SW,225,4.3,10.1,86,0.00,,,0.07,WUHU216HW,2013-02-25 13:18:00,
2013-02-25 05:23:00,42.1,38.2,29.69,WSW,248,7.2,10.1,86,0.00,,,0.07,WUHU216HW,2013-02-25 13:23:00,
2013-02-25 05:28:00,42.1,38.2,29.69,SW,225,2.7,8.9,86,0.00,,,0.07,WUHU216HW,2013-02-25 13:28:00,
2013-02-25 05:33:00,41.9,38.4,29.70,SSW,203,2.0,8.9,87,0.00,,,0.07,WUHU216HW,2013-02-25 13:33:00,
2013-02-25 05:38:00,42.1,38.2,29.70,WSW,248,1.3,7.6,86,0.00,,,0.07,WUHU216HW,2013-02-25 13:38:00,
2013-02-25 05:43:00,42.1,38.2,29.69,SSW,203,2.5,5.4,86,0.00,,,0.07,WUHU216HW,2013-02-25 13:43:00,
2013-02-25 05:48:00,41.9,38.0,29.69,ESE,113,4.3,6.3,86,0.00,,,0.07,WUHU216HW,2013-02-25 13:48:00,
2013-02-25 05:53:00,42.1,38.5,29.69,SW,225,4.7,6.5,87,0.00,,,0.07,WUHU216HW,2013-02-25 13:53:00,
2013-02-25 05:58:00,41.9,38.4,29.70,West,270,3.4,9.2,87,0.00,,,0.07,WUHU216HW,2013-02-25 13:58:00,
2013-02-25 06:04:00,41.9,38.0,29.69,SSW,203,1.8,9.2,86,0.00,,,0.07,WUHU216HW,2013-02-25 14:04:00,
2013-02-25 06:09:00,41.9,38.0,29.69,West,270,2.5,7.2,86,0.00,,,0.07,WUHU216HW,2013-02-25 14:09:00,
2013-02-25 06:14:00,41.9,38.0,29.69,SSW,203,2.5,7.2,86,0.00,,,0.07,WUHU216HW,2013-02-25 14:14:00,
2013-02-25 06:19:00,41.9,38.0,29.69,WNW,293,5.6,6.9,86,0.00,,,0.07,WUHU216HW,2013-02-25 14:19:00,
2013-02-25 06:24:00,41.9,38.0,29.69,SW,225,5.8,6.0,86,0.00,,,0.07,WUHU216HW,2013-02-25 14:24:00,
2013-02-25 06:29:00,41.9,38.0,29.70,WSW,248,5.6,6.0,86,0.00,,,0.07,WUHU216HW,2013-02-25 14:29:00,
2013-02-25 06:34:00,41.9,38.0,29.70,WSW,248,2.0,6.3,86,0.00,,,0.07,WUHU216HW,2013-02-25 14:34:00,
2013-02-25 06:39:00,41.9,37.7,29.70,NW,315,1.1,6.7,85,0.00,,,0.07,WUHU216HW,2013-02-25 14:39:00,
2013-02-25 06:44:00,41.9,38.0,29.70,WSW,248,7.4,7.4,86,0.00,,,0.07,WUHU216HW,2013-02-25 14:44:00,
2013-02-25 06:49:00,42.1,38.2,29.70,SW,225,5.8,10.5,86,0.00,,,0.07,WUHU216HW,2013-02-25 14:49:00,
2013-02-25 06:54:00,41.9,38.0,29.70,SSW,203,4.7,10.5,86,0.00,,,0.07,WUHU216HW,2013-02-25 14:54:00,
2013-02-25 06:59:00,41.9,37.7,29.70,West,270,4.0,8.1,85,0.00,,,0.07,WUHU216HW,2013-02-25 14:59:00,
2013-02-25 07:04:00,41.9,37.7,29.70,SW,225,6.5,8.5,85,0.00,,,0.07,WUHU216HW,2013-02-25 15:04:00,
2013-02-25 07:09:00,41.9,37.7,29.70,SW,225,5.4,8.5,85,0.00,,,0.07,WUHU216HW,2013-02-25 15:09:00,
2013-02-25 07:14:00,41.9,38.0,29.70,SSW,203,6.7,8.5,86,0.00,,,0.07,WUHU216HW,2013-02-25 15:14:00,
2013-02-25 07:19:00,41.9,37.7,29.70,SW,225,3.6,7.4,85,0.00,,,0.07,WUHU216HW,2013-02-25 15:19:00,
2013-02-25 07:24:00,41.9,37.7,29.70,South,180,3.8,7.6,85,0.00,,,0.07,WUHU216HW,2013-02-25 15:24:00,
2013-02-25 07:29:00,42.1,37.9,29.70,NNW,338,1.8,7.6,85,0.00,,,0.07,WUHU216HW,2013-02-25 15:29:00,
2013-02-25 07:35:00,41.9,37.7,29.71,South,180,6.5,6.5,85,0.00,,,0.07,WUHU216HW,2013-02-25 15:35:00,
2013-02-25 07:40:00,42.1,38.2,29.71,WSW,248,4.0,6.5,86,0.00,,,0.07,WUHU216HW,2013-02-25 15:40:00,
2013-02-25 07:45:00,42.1,38.2,29.71,SW,225,4.0,6.5,86,0.00,,,0.07,WUHU216HW,2013-02-25 15:45:00,
2013-02-25 07:50:00,41.9,37.7,29.71,SSW,203,4.0,7.2,85,0.00,,,0.07,WUHU216HW,2013-02-25 15:50:00,
2013-02-25 07:55:00,41.9,37.7,29.71,SSW,203,3.4,7.2,85,0.00,,,0.07,WUHU216HW,2013-02-25 15:55:00,
2013-02-25 08:00:00,41.9,37.7,29.72,SSW,203,1.3,7.2,85,0.00,,,0.07,WUHU216HW,2013-02-25 16:00:00,
2013-02-25 08:05:00,42.1,37.9,29.72,SW,225,2.0,6.9,85,0.00,,,0.07,WUHU216HW,2013-02-25 16:05:00,
2013-02-25 08:10:00,42.1,38.2,29.72,SSW,203,2.2,5.6,86,0.00,,,0.07,WUHU216HW,2013-02-25 16:10:00,
2013-02-25 08:15:00,42.1,37.9,29.72,SW,225,6.7,7.8,85,0.00,,,0.07,WUHU216HW,2013-02-25 16:15:00,
2013-02-25 08:20:00,41.9,37.7,29.73,WSW,248,4.5,7.8,85,0.00,,,0.07,WUHU216HW,2013-02-25 16:20:00,
2013-02-25 08:25:00,42.1,37.9,29.73,SW,225,3.6,6.9,85,0.00,,,0.07,WUHU216HW,2013-02-25 16:25:00,
2013-02-25 08:30:00,42.1,37.9,29.73,SSW,203,6.9,8.7,85,0.00,,,0.07,WUHU216HW,2013-02-25 16:30:00,
2013-02-25 08:35:00,42.1,37.9,29.74,SW,225,0.2,8.7,85,0.00,,,0.07,WUHU216HW,2013-02-25 16:35:00,
2013-02-25 08:40:00,42.1,37.9,29.74,SW,225,8.3,8.9,85,0.00,,,0.07,WUHU216HW,2013-02-25 16:40:00,
2013-02-25 08:45:00,42.1,37.9,29.75,SW,225,4.3,8.9,85,0.00,,,0.07,WUHU216HW,2013-02-25 16:45:00,
2013-02-25 08:50:00,42.1,37.9,29.75,West,270,2.9,10.7,85,0.00,,,0.07,WUHU216HW,2013-02-25 16:50:00,
2013-02-25 08:55:00,42.1,37.9,29.75,SW,225,2.0,10.7,85,0.00,,,0.07,WUHU216HW,2013-02-25 16:55:00,
2013-02-25 09:01:00,42.3,38.1,29.75,WSW,248,1.3,8.1,85,0.00,,,0.07,WUHU216HW,2013-02-25 17:01:00,
2013-02-25 09:06:00,42.5,38.3,29.76,WSW,248,3.4,4.7,85,0.00,,,0.07,WUHU216HW,2013-02-25 17:06:00,
2013-02-25 09:11:00,42.5,38.3,29.76,SW,225,6.0,10.3,85,0.00,,,0.07,WUHU216HW,2013-02-25 17:11:00,
2013-02-25 09:16:00,42.5,38.3,29.75,SW,225,4.9,10.3,85,0.00,,,0.07,WUHU216HW,2013-02-25 17:16:00,
2013-02-25 09:21:00,42.5,38.3,29.75,SSW,203,3.4,6.7,85,0.00,,,0.07,WUHU216HW,2013-02-25 17:21:00,
2013-02-25 09:26:00,42.5,38.3,29.75,SW,225,1.3,7.8,85,0.00,,,0.07,WUHU216HW,2013-02-25 17:26:00,
2013-02-25 09:31:00,42.7,38.4,29.75,WSW,248,8.9,8.9,85,0.00,,,0.07,WUHU216HW,2013-02-25 17:31:00,
2013-02-25 09:36:00,42.8,38.6,29.75,West,270,6.5,8.9,85,0.00,,,0.07,WUHU216HW,2013-02-25 17:36:00,
2013-02-25 09:41:00,42.8,38.6,29.75,WSW,248,3.4,7.6,85,0.00,,,0.07,WUHU216HW,2013-02-25 17:41:00,
2013-02-25 09:46:00,42.8,38.6,29.75,SW,225,2.7,7.6,85,0.00,,,0.07,WUHU216HW,2013-02-25 17:46:00,
2013-02-25 09:51:00,42.8,38.4,29.75,WSW,248,4.7,7.6,84,0.00,,,0.07,WUHU216HW,2013-02-25 17:51:00,
2013-02-25 09:56:00,42.8,38.6,29.76,South,180,3.4,7.6,85,0.00,,,0.07,WUHU216HW,2013-02-25 17:56:00,
2013-02-25 10:01:00,42.8,38.4,29.76,WSW,248,2.2,9.2,84,0.00,,,0.07,WUHU216HW,2013-02-25 18:01:00,
2013-02-25 10:06:00,43.0,38.5,29.76,NW,315,0.4,9.2,84,0.00,,,0.07,WUHU216HW,2013-02-25 18:06:00,
2013-02-25 10:11:00,43.2,38.7,29.77,WSW,248,5.1,8.5,84,0.00,,,0.07,WUHU216HW,2013-02-25 18:11:00,
2013-02-25 10:16:00,43.2,38.7,29.76,SSW,203,1.6,6.5,84,0.00,,,0.07,WUHU216HW,2013-02-25 18:16:00,
2013-02-25 10:21:00,43.2,38.7,29.77,SW,225,2.2,6.5,84,0.00,,,0.07,WUHU216HW,2013-02-25 18:21:00,
2013-02-25 10:26:00,43.4,38.5,29.77,NW,315,1.6,6.7,83,0.00,,,0.07,WUHU216HW,2013-02-25 18:26:00,
2013-02-25 10:31:00,43.4,38.5,29.77,West,270,1.8,6.7,83,0.00,,,0.07,WUHU216HW,2013-02-25 18:31:00,
2013-02-25 10:36:00,43.4,38.5,29.78,South,180,4.5,6.3,83,0.00,,,0.07,WUHU216HW,2013-02-25 18:36:00,
2013-02-25 10:41:00,43.4,38.5,29.78,SW,225,5.4,7.8,83,0.00,,,0.07,WUHU216HW,2013-02-25 18:41:00,
2013-02-25 10:46:00,43.4,38.5,29.78,SW,225,4.3,7.8,83,0.00,,,0.07,WUHU216HW,2013-02-25 18:46:00,
2013-02-25 10:51:00,43.4,38.3,29.78,WSW,248,5.8,5.8,82,0.00,,,0.07,WUHU216HW,2013-02-25 18:51:00,
2013-02-25 10:56:00,43.4,38.3,29.79,WSW,248,1.6,5.8,82,0.00,,,0.07,WUHU216HW,2013-02-25 18:56:00,
2013-02-25 11:02:00,43.6,38.4,29.79,NW,315,6.3,7.2,82,0.00,,,0.07,WUHU216HW,2013-02-25 19:02:00,
2013-02-25 11:07:00,43.6,38.1,29.79,SSE,158,1.1,7.2,81,0.00,,,0.07,WUHU216HW,2013-02-25 19:07:00,
2013-02-25 11:12:00,43.6,38.1,29.79,WSW,248,4.0,6.3,81,0.00,,,0.07,WUHU216HW,2013-02-25 19:12:00,
2013-02-25 11:17:00,43.7,38.3,29.79,WSW,248,4.0,5.1,81,0.00,,,0.07,WUHU216HW,2013-02-25 19:17:00,
2013-02-25 11:22:00,43.7,38.0,29.79,SW,225,2.0,5.1,80,0.00,,,0.07,WUHU216HW,2013-02-25 19:22:00,
2013-02-25 11:27:00,43.9,38.4,29.80,West,270,2.5,5.6,81,0.00,,,0.07,WUHU216HW,2013-02-25 19:27:00,
2013-02-25 11:32:00,43.9,38.2,29.80,WSW,248,2.2,5.6,80,0.00,,,0.07,WUHU216HW,2013-02-25 19:32:00,
2013-02-25 11:37:00,44.1,37.7,29.81,SSW,203,1.8,5.1,78,0.00,,,0.07,WUHU216HW,2013-02-25 19:37:00,
2013-02-25 11:42:00,44.1,37.7,29.81,South,180,4.5,4.5,78,0.00,,,0.07,WUHU216HW,2013-02-25 19:42:00,
2013-02-25 11:47:00,44.3,38.2,29.81,SW,225,2.5,4.5,79,0.00,,,0.07,WUHU216HW,2013-02-25 19:47:00,
2013-02-25 11:52:00,44.5,37.7,29.81,WSW,248,2.9,4.5,77,0.00,,,0.07,WUHU216HW,2013-02-25 19:52:00,
2013-02-25 11:57:00,44.6,37.5,29.81,SW,225,0.4,4.0,76,0.00,,,0.07,WUHU216HW,2013-02-25 19:57:00,
2013-02-25 12:02:00,44.8,37.7,29.82,West,270,2.7,5.8,76,0.00,,,0.07,WUHU216HW,2013-02-25 20:02:00,
2013-02-25 12:07:00,45.0,37.5,29.82,WSW,248,4.7,5.8,75,0.00,,,0.07,WUHU216HW,2013-02-25 20:07:00,
2013-02-25 12:12:00,45.5,38.8,29.82,West,270,3.1,4.7,77,0.00,,,0.07,WUHU216HW,2013-02-25 20:12:00,
2013-02-25 12:17:00,46.3,38.8,29.82,SW,225,1.3,7.4,75,0.00,,,0.07,WUHU216HW,2013-02-25 20:17:00,
2013-02-25 12:22:00,46.8,38.6,29.82,WSW,248,3.4,7.4,73,0.00,,,0.07,WUHU216HW,2013-02-25 20:22:00,
2013-02-25 12:27:00,47.2,38.6,29.83,WSW,248,4.0,6.7,72,0.00,,,0.07,WUHU216HW,2013-02-25 20:27:00,
2013-02-25 12:32:00,47.2,39.0,29.82,WSW,248,1.8,6.7,73,0.00,,,0.07,WUHU216HW,2013-02-25 20:32:00,
2013-02-25 12:37:00,47.3,38.4,29.83,SW,225,1.3,5.6,71,0.00,,,0.07,WUHU216HW,2013-02-25 20:37:00,
2013-02-25 12:42:00,47.5,38.6,29.83,WSW,248,1.1,5.1,71,0.00,,,0.07,WUHU216HW,2013-02-25 20:42:00,
2013-02-25 12:47:00,47.7,38.4,29.82,SSW,203,1.3,5.8,70,0.00,,,0.07,WUHU216HW,2013-02-25 20:47:00,
2013-02-25 12:52:00,47.9,38.5,29.82,SSW,203,3.6,5.8,70,0.00,,,0.07,WUHU216HW,2013-02-25 20:52:00,
2013-02-25 12:57:00,48.1,38.0,29.83,SW,225,2.0,6.3,68,0.00,,,0.07,WUHU216HW,2013-02-25 20:57:00,
2013-02-25 13:03:00,48.2,37.4,29.83,WSW,248,7.2,8.9,66,0.00,,,0.07,WUHU216HW,2013-02-25 21:03:00,
2013-02-25 13:08:00,48.6,37.4,29.83,WNW,293,5.8,8.9,65,0.00,,,0.07,WUHU216HW,2013-02-25 21:08:00,
2013-02-25 13:13:00,49.0,38.1,29.83,SSW,203,2.5,7.2,66,0.00,,,0.07,WUHU216HW,2013-02-25 21:13:00,
2013-02-25 13:18:00,49.3,37.6,29.84,SW,225,3.8,6.3,64,0.00,,,0.07,WUHU216HW,2013-02-25 21:18:00,
2013-02-25 13:23:00,49.1,37.8,29.84,SSW,203,5.1,6.3,65,0.00,,,0.07,WUHU216HW,2013-02-25 21:23:00,
2013-02-25 13:28:00,49.0,37.7,29.84,SW,225,1.8,6.0,65,0.00,,,0.07,WUHU216HW,2013-02-25 21:28:00,
2013-02-25 13:33:00,48.8,37.9,29.84,SSW,203,4.3,7.8,66,0.00,,,0.07,WUHU216HW,2013-02-25 21:33:00,
2013-02-25 13:38:00,48.6,37.7,29.84,West,270,2.0,7.8,66,0.00,,,0.07,WUHU216HW,2013-02-25 21:38:00,
2013-02-25 13:43:00,48.8,38.3,29.84,SW,225,1.6,4.3,67,0.00,,,0.07,WUHU216HW,2013-02-25 21:43:00,
2013-02-25 13:48:00,48.8,37.9,29.84,SW,225,4.0,6.3,66,0.00,,,0.07,WUHU216HW,2013-02-25 21:48:00,
2013-02-25 13:53:00,49.0,38.4,29.84,South,180,1.1,6.3,67,0.00,,,0.07,WUHU216HW,2013-02-25 21:53:00,
2013-02-25 13:58:00,49.7,38.3,29.84,WSW,248,4.7,6.3,65,0.00,,,0.07,WUHU216HW,2013-02-25 21:58:00,
2013-02-25 14:03:00,50.0,37.9,29.84,SSE,158,1.3,6.3,63,0.00,,,0.07,WUHU216HW,2013-02-25 22:03:00,
2013-02-25 14:08:00,50.4,38.6,29.84,SE,135,0.4,5.6,64,0.00,,,0.07,WUHU216HW,2013-02-25 22:08:00,
2013-02-25 14:13:00,50.9,38.7,29.84,NW,315,4.9,6.9,63,0.00,,,0.07,WUHU216HW,2013-02-25 22:13:00,
2013-02-25 14:18:00,51.1,37.3,29.84,West,270,4.3,9.2,59,0.00,,,0.07,WUHU216HW,2013-02-25 22:18:00,
2013-02-25 14:23:00,50.8,37.4,29.84,WSW,248,6.3,9.2,60,0.00,,,0.07,WUHU216HW,2013-02-25 22:23:00,
2013-02-25 14:28:00,50.6,36.7,29.85,WNW,293,5.4,6.3,59,0.00,,,0.07,WUHU216HW,2013-02-25 22:28:00,
2013-02-25 14:33:00,50.2,36.9,29.84,SW,225,4.0,6.9,60,0.00,,,0.07,WUHU216HW,2013-02-25 22:33:00,
2013-02-25 14:38:00,50.0,36.7,29.84,WSW,248,1.6,6.9,60,0.00,,,0.07,WUHU216HW,2013-02-25 22:38:00,
2013-02-25 14:43:00,49.7,35.9,29.84,WSW,248,1.8,8.7,59,0.00,,,0.07,WUHU216HW,2013-02-25 22:43:00,
2013-02-25 14:48:00,49.5,35.8,29.84,SW,225,3.4,8.7,59,0.00,,,0.07,WUHU216HW,2013-02-25 22:48:00,
2013-02-25 14:53:00,49.3,35.2,29.85,SSW,203,5.6,8.3,58,0.00,,,0.07,WUHU216HW,2013-02-25 22:53:00,
2013-02-25 14:58:00,49.3,34.8,29.85,West,270,4.0,8.3,57,0.00,,,0.07,WUHU216HW,2013-02-25 22:58:00,
2013-02-25 15:03:00,49.1,34.6,29.85,SW,225,2.9,6.7,57,0.00,,,0.07,WUHU216HW,2013-02-25 23:03:00,
2013-02-25 15:08:00,49.1,35.0,29.86,WSW,248,6.7,6.7,58,0.00,,,0.07,WUHU216HW,2013-02-25 23:08:00,
2013-02-25 15:13:00,48.8,34.7,29.86,SW,225,1.1,10.1,58,0.00,,,0.07,WUHU216HW,2013-02-25 23:13:00,
2013-02-25 15:18:00,48.2,35.5,29.87,WNW,293,2.7,10.1,61,0.00,,,0.07,WUHU216HW,2013-02-25 23:18:00,
2013-02-25 15:23:00,47.5,34.7,29.87,WNW,293,6.9,7.2,61,0.00,,,0.07,WUHU216HW,2013-02-25 23:23:00,
2013-02-25 15:28:00,47.2,35.6,29.87,SE,135,1.8,6.9,64,0.00,,,0.07,WUHU216HW,2013-02-25 23:28:00,
2013-02-25 15:33:00,47.2,35.2,29.87,NW,315,0.2,6.9,63,0.00,,,0.07,WUHU216HW,2013-02-25 23:33:00,
2013-02-25 15:38:00,47.2,34.4,29.87,ESE,113,0.0,2.2,61,0.00,,,0.07,WUHU216HW,2013-02-25 23:38:00,
2013-02-25 15:43:00,47.3,35.0,29.87,ESE,113,0.0,2.2,62,0.00,,,0.07,WUHU216HW,2013-02-25 23:43:00,
2013-02-25 15:48:00,47.2,34.8,29.87,East,90,0.0,1.1,62,0.00,,,0.07,WUHU216HW,2013-02-25 23:48:00,
2013-02-25 15:53:00,47.2,34.8,29.86,SSE,158,1.3,3.6,62,0.00,,,0.07,WUHU216HW,2013-02-25 23:53:00,
2013-02-25 15:58:00,47.2,35.2,29.87,SW,225,1.8,3.6,63,0.00,,,0.07,WUHU216HW,2013-02-25 23:58:00,
2013-02-25 16:03:00,47.2,34.4,29.87,WNW,293,2.2,2.5,61,0.00,,,0.07,WUHU216HW,2013-02-26 00:03:00,
2013-02-25 16:08:00,47.5,33.5,29.87,WNW,293,3.4,5.4,58,0.00,,,0.07,WUHU216HW,2013-02-26 00:08:00,
2013-02-25 16:13:00,47.9,33.4,29.88,SSW,203,4.0,7.2,57,0.00,,,0.07,WUHU216HW,2013-02-26 00:13:00,
2013-02-25 16:18:00,48.2,33.7,29.88,SW,225,1.1,7.2,57,0.00,,,0.07,WUHU216HW,2013-02-26 00:18:00,
2013-02-25 16:23:00,48.6,33.6,29.88,WSW,248,1.6,6.3,56,0.00,,,0.07,WUHU216HW,2013-02-26 00:23:00,
2013-02-25 16:28:00,48.6,32.7,29.88,South,180,1.1,6.3,54,0.00,,,0.07,WUHU216HW,2013-02-26 00:28:00,
2013-02-25 16:33:00,48.6,31.7,29.88,WNW,293,4.0,6.3,52,0.00,,,0.07,WUHU216HW,2013-02-26 00:33:00,
2013-02-25 16:38:00,48.4,32.1,29.88,WSW,248,0.7,9.8,53,0.00,,,0.07,WUHU216HW,2013-02-26 00:38:00,
2013-02-25 16:43:00,48.4,33.0,29.88,WSW,248,0.0,9.8,55,0.00,,,0.07,WUHU216HW,2013-02-26 00:43:00,
2013-02-25 16:49:00,48.2,33.2,29.89,WSW,248,2.2,4.9,56,0.00,,,0.07,WUHU216HW,2013-02-26 00:49:00,
2013-02-25 16:54:00,48.2,34.7,29.89,SW,225,2.0,4.9,59,0.00,,,0.07,WUHU216HW,2013-02-26 00:54:00,
2013-02-25 16:59:00,48.1,35.3,29.90,South,180,1.8,4.7,61,0.00,,,0.07,WUHU216HW,2013-02-26 00:59:00,
2013-02-25 17:04:00,47.9,35.1,29.90,WSW,248,0.7,6.3,61,0.00,,,0.07,WUHU216HW,2013-02-26 01:04:00,
2013-02-25 17:08:00,47.7,34.9,29.90,SW,225,1.6,6.3,61,0.00,,,0.07,WUHU216HW,2013-02-26 01:08:00,
2013-02-25 17:13:00,47.5,35.2,29.90,West,270,1.8,6.0,62,0.00,,,0.07,WUHU216HW,2013-02-26 01:13:00,
2013-02-25 17:18:00,47.2,35.2,29.90,SSW,203,3.4,6.0,63,0.00,,,0.07,WUHU216HW,2013-02-26 01:18:00,
2013-02-25 17:23:00,46.8,34.8,29.91,SW,225,1.3,5.8,63,0.00,,,0.07,WUHU216HW,2013-02-26 01:23:00,
2013-02-25 17:28:00,46.4,34.5,29.91,WSW,248,2.0,6.9,63,0.00,,,0.07,WUHU216HW,2013-02-26 01:28:00,
2013-02-25 17:34:00,46.1,34.1,29.91,SSW,203,2.2,6.9,63,0.00,,,0.07,WUHU216HW,2013-02-26 01:34:00,
2013-02-25 17:39:00,45.7,34.2,29.91,NNW,338,1.1,4.5,64,0.00,,,0.07,WUHU216HW,2013-02-26 01:39:00,
2013-02-25 17:44:00,45.5,34.0,29.92,SW,225,2.5,4.0,64,0.00,,,0.07,WUHU216HW,2013-02-26 01:44:00,
2013-02-25 17:49:00,45.4,34.3,29.92,SSW,203,1.8,4.7,65,0.00,,,0.07,WUHU216HW,2013-02-26 01:49:00,
2013-02-25 17:54:00,45.2,34.1,29.92,WSW,248,1.1,4.7,65,0.00,,,0.07,WUHU216HW,2013-02-26 01:54:00,
2013-02-25 17:59:00,45.0,34.3,29.92,West,270,3.4,4.3,66,0.00,,,0.07,WUHU216HW,2013-02-26 01:59:00,
2013-02-25 18:04:00,44.8,34.1,29.92,South,180,0.4,4.3,66,0.00,,,0.07,WUHU216HW,2013-02-26 02:04:00,
2013-02-25 18:09:00,44.8,34.5,29.92,SSW,203,1.1,4.0,67,0.00,,,0.07,WUHU216HW,2013-02-26 02:09:00,
2013-02-25 18:14:00,44.5,34.2,29.93,SW,225,1.6,3.1,67,0.00,,,0.07,WUHU216HW,2013-02-26 02:14:00,
2013-02-25 18:19:00,44.3,34.4,29.94,East,90,0.0,1.6,68,0.00,,,0.07,WUHU216HW,2013-02-26 02:19:00,
2013-02-25 18:24:00,44.1,35.0,29.94,SSE,158,0.0,2.2,70,0.00,,,0.07,WUHU216HW,2013-02-26 02:24:00,
2013-02-25 18:29:00,43.9,34.8,29.95,South,180,1.1,2.2,70,0.00,,,0.07,WUHU216HW,2013-02-26 02:29:00,
2013-02-25 18:34:00,43.9,35.2,29.95,SSW,203,0.4,1.1,71,0.00,,,0.07,WUHU216HW,2013-02-26 02:34:00,
2013-02-25 18:39:00,43.7,34.7,29.96,SSW,203,0.4,2.5,70,0.00,,,0.07,WUHU216HW,2013-02-26 02:39:00,
2013-02-25 18:44:00,43.6,34.8,29.96,SW,225,1.8,2.5,71,0.00,,,0.07,WUHU216HW,2013-02-26 02:44:00,
2013-02-25 18:49:00,43.6,34.8,29.96,SSW,203,1.1,3.8,71,0.00,,,0.07,WUHU216HW,2013-02-26 02:49:00,
2013-02-25 18:54:00,43.4,34.7,29.97,SSW,203,2.7,3.8,71,0.00,,,0.07,WUHU216HW,2013-02-26 02:54:00,
2013-02-25 18:59:00,43.2,34.5,29.96,SSW,203,1.8,4.0,71,0.00,,,0.07,WUHU216HW,2013-02-26 02:59:00,
2013-02-25 19:04:00,43.0,34.7,29.97,SSW,203,2.7,3.8,72,0.00,,,0.07,WUHU216HW,2013-02-26 03:04:00,
2013-02-25 19:09:00,42.8,34.5,29.97,WNW,293,0.4,2.7,72,0.00,,,0.07,WUHU216HW,2013-02-26 03:09:00,
2013-02-25 19:14:00,42.8,34.8,29.97,WSW,248,0.9,3.4,73,0.00,,,0.07,WUHU216HW,2013-02-26 03:14:00,
2013-02-25 19:20:00,42.8,34.8,29.97,SSW,203,0.9,3.8,73,0.00,,,0.07,WUHU216HW,2013-02-26 03:20:00,
2013-02-25 19:25:00,42.7,34.7,29.97,NNW,338,2.7,4.0,73,0.00,,,0.07,WUHU216HW,2013-02-26 03:25:00,
2013-02-25 19:30:00,42.7,34.9,29.97,SW,225,2.7,4.0,74,0.00,,,0.07,WUHU216HW,2013-02-26 03:30:00,
2013-02-25 19:35:00,42.5,34.7,29.97,WSW,248,1.3,4.0,74,0.00,,,0.07,WUHU216HW,2013-02-26 03:35:00,
2013-02-25 19:40:00,42.3,34.6,29.98,SW,225,0.2,4.0,74,0.00,,,0.07,WUHU216HW,2013-02-26 03:40:00,
2013-02-25 19:45:00,42.3,34.9,29.98,SW,225,0.4,4.0,75,0.00,,,0.07,WUHU216HW,2013-02-26 03:45:00,
2013-02-25 19:50:00,42.1,34.7,29.98,SW,225,0.4,4.0,75,0.00,,,0.07,WUHU216HW,2013-02-26 03:50:00,
2013-02-25 19:55:00,42.1,34.7,29.98,WSW,248,1.1,3.1,75,0.00,,,0.07,WUHU216HW,2013-02-26 03:55:00,
2013-02-25 20:00:00,41.9,34.9,29.98,SW,225,1.3,4.7,76,0.00,,,0.07,WUHU216HW,2013-02-26 04:00:00,
2013-02-25 20:05:00,41.8,34.8,29.99,SE,135,0.4,4.7,76,0.00,,,0.07,WUHU216HW,2013-02-26 04:05:00,
2013-02-25 20:10:00,41.8,34.8,29.99,WSW,248,2.7,3.4,76,0.00,,,0.07,WUHU216HW,2013-02-26 04:10:00,
2013-02-25 20:15:00,41.8,34.8,29.99,SSW,203,0.0,2.7,76,0.00,,,0.07,WUHU216HW,2013-02-26 04:15:00,
2013-02-25 20:20:00,41.8,35.0,30.00,SW,225,0.2,2.9,77,0.00,,,0.07,WUHU216HW,2013-02-26 04:20:00,
2013-02-25 20:25:00,41.8,35.0,30.00,SW,225,0.4,2.9,77,0.00,,,0.07,WUHU216HW,2013-02-26 04:25:00,
2013-02-25 20:30:00,41.8,35.0,30.00,WSW,248,2.0,2.7,77,0.00,,,0.07,WUHU216HW,2013-02-26 04:30:00,
2013-02-25 20:35:00,41.8,35.0,30.00,SSW,203,0.7,4.3,77,0.00,,,0.07,WUHU216HW,2013-02-26 04:35:00,
2013-02-25 20:40:00,41.8,35.0,30.01,WSW,248,0.4,4.3,77,0.00,,,0.07,WUHU216HW,2013-02-26 04:40:00,
2013-02-25 20:45:00,41.9,35.2,30.01,WSW,248,0.7,2.0,77,0.00,,,0.07,WUHU216HW,2013-02-26 04:45:00,
2013-02-25 20:50:00,41.9,35.2,30.01,West,270,0.4,2.0,77,0.00,,,0.07,WUHU216HW,2013-02-26 04:50:00,
2013-02-25 20:55:00,41.8,35.0,30.01,SSW,203,2.5,2.7,77,0.00,,,0.07,WUHU216HW,2013-02-26 04:55:00,
2013-02-25 21:00:00,41.8,35.0,30.01,WSW,248,0.9,2.7,77,0.00,,,0.07,WUHU216HW,2013-02-26 05:00:00,
2013-02-25 21:05:00,41.6,34.8,30.01,WSW,248,1.8,2.7,77,0.00,,,0.07,WUHU216HW,2013-02-26 05:05:00,
2013-02-25 21:10:00,41.4,34.7,30.02,East,90,0.4,2.9,77,0.00,,,0.07,WUHU216HW,2013-02-26 05:10:00,
2013-02-25 21:15:00,41.4,34.7,30.02,South,180,0.0,2.9,77,0.00,,,0.07,WUHU216HW,2013-02-26 05:15:00,
2013-02-25 21:21:00,41.4,34.7,30.02,SE,135,0.4,2.9,77,0.00,,,0.07,WUHU216HW,2013-02-26 05:21:00,
2013-02-25 21:26:00,41.2,34.5,30.02,SW,225,1.8,3.6,77,0.00,,,0.07,WUHU216HW,2013-02-26 05:26:00,
2013-02-25 21:31:00,41.2,34.5,30.03,WSW,248,0.9,3.6,77,0.00,,,0.07,WUHU216HW,2013-02-26 05:31:00,
2013-02-25 21:36:00,41.0,34.7,30.03,SW,225,0.4,3.4,78,0.00,,,0.07,WUHU216HW,2013-02-26 05:36:00,
2013-02-25 21:41:00,41.0,34.7,30.03,South,180,0.4,3.4,78,0.00,,,0.07,WUHU216HW,2013-02-26 05:41:00,
2013-02-25 21:46:00,40.9,34.5,30.03,SSE,158,0.0,2.0,78,0.00,,,0.07,WUHU216HW,2013-02-26 05:46:00,
2013-02-25 21:51:00,40.9,34.5,30.04,SSW,203,0.0,1.6,78,0.00,,,0.07,WUHU216HW,2013-02-26 05:51:00,
2013-02-25 21:56:00,40.7,34.3,30.04,South,180,0.2,1.3,78,0.00,,,0.07,WUHU216HW,2013-02-26 05:56:00,
2013-02-25 22:01:00,40.7,34.3,30.04,SE,135,0.4,1.3,78,0.00,,,0.07,WUHU216HW,2013-02-26 06:01:00,
2013-02-25 22:06:00,40.7,34.7,30.04,SSW,203,0.4,0.7,79,0.00,,,0.07,WUHU216HW,2013-02-26 06:06:00,
2013-02-25 22:11:00,40.5,34.5,30.04,South,180,0.0,0.7,79,0.00,,,0.07,WUHU216HW,2013-02-26 06:11:00,
2013-02-25 22:16:00,40.3,34.3,30.04,South,180,0.0,0.4,79,0.00,,,0.07,WUHU216HW,2013-02-26 06:16:00,
2013-02-25 22:21:00,40.3,34.3,30.04,SSE,158,1.6,1.6,79,0.00,,,0.07,WUHU216HW,2013-02-26 06:21:00,
2013-02-25 22:26:00,40.1,34.5,30.04,ESE,113,1.3,1.6,80,0.00,,,0.07,WUHU216HW,2013-02-26 06:26:00,
2013-02-25 22:31:00,40.0,33.9,30.04,SE,135,0.2,1.3,79,0.00,,,0.07,WUHU216HW,2013-02-26 06:31:00,
2013-02-25 22:36:00,40.0,33.9,30.05,SSE,158,0.0,1.1,79,0.00,,,0.07,WUHU216HW,2013-02-26 06:36:00,
2013-02-25 22:41:00,40.0,33.9,30.05,SSW,203,0.0,0.9,79,0.00,,,0.07,WUHU216HW,2013-02-26 06:41:00,
2013-02-25 22:46:00,39.8,33.9,30.05,SSW,203,0.4,0.9,79,0.00,,,0.07,WUHU216HW,2013-02-26 06:46:00,
2013-02-25 22:52:00,39.8,33.9,30.05,SSE,158,0.2,1.1,79,0.00,,,0.07,WUHU216HW,2013-02-26 06:52:00,
2013-02-25 22:57:00,39.8,34.1,30.05,SSE,158,0.4,1.1,80,0.00,,,0.07,WUHU216HW,2013-02-26 06:57:00,
2013-02-25 23:02:00,39.6,34.0,30.05,South,180,0.2,0.7,80,0.00,,,0.07,WUHU216HW,2013-02-26 07:02:00,
2013-02-25 23:07:00,39.6,34.0,30.05,SSW,203,0.0,0.4,80,0.00,,,0.07,WUHU216HW,2013-02-26 07:07:00,
2013-02-25 23:12:00,39.6,34.0,30.05,SSE,158,0.0,1.3,80,0.00,,,0.07,WUHU216HW,2013-02-26 07:12:00,
2013-02-25 23:17:00,39.4,33.9,30.05,SE,135,0.0,1.3,80,0.00,,,0.07,WUHU216HW,2013-02-26 07:17:00,
2013-02-25 23:22:00,39.4,33.9,30.05,South,180,0.0,1.1,80,0.00,,,0.07,WUHU216HW,2013-02-26 07:22:00,
2013-02-25 23:27:00,39.2,33.7,30.05,ESE,113,0.4,1.1,80,0.00,,,0.07,WUHU216HW,2013-02-26 07:27:00,
2013-02-25 23:32:00,39.2,33.7,30.05,ESE,113,0.0,0.4,80,0.00,,,0.07,WUHU216HW,2013-02-26 07:32:00,
2013-02-25 23:38:00,39.2,33.7,30.05,ESE,113,0.0,0.4,80,0.00,,,0.07,WUHU216HW,2013-02-26 07:38:00,
2013-02-25 23:43:00,39.2,33.7,30.05,ESE,113,0.2,0.2,80,0.00,,,0.07,WUHU216HW,2013-02-26 07:43:00,
2013-02-25 23:48:00,39.1,33.5,30.05,ESE,113,0.0,0.2,80,0.00,,,0.07,WUHU216HW,2013-02-26 07:48:00,
2013-02-25 23:53:00,38.9,33.3,30.06,SW,225,0.4,1.1,80,0.00,,,0.07,WUHU216HW,2013-02-26 07:53:00,
2013-02-25 23:58:00,38.9,33.3,30.06,SW,225,0.0,1.1,80,0.00,,,0.07,WUHU216HW,2013-02-26 07:58:00,